sat.trackr.live / text

‹ back to catalog

KUIPER-00560

NORAD 69623 · 2026-140AH

PAYLOAD ACTIVE UNKNOWN

§ Identity

Operator
Country
US
Launch date
2026-06-17
Launch site
FRGUI
Launch vehicle
Mass (kg)
RCS (m²)

External: N2YO · Heavens-Above · Gunter

§ Orbital elements

Epoch: 2026-09-19T18:27:14.451264Z

Period
93.68 min
Inclination
51.8793°
Eccentricity
0.0008174
Mean motion
15.37097804 rev/d
Perigee alt
449.1 km
Apogee alt
460.3 km
Semi-major
6,832.8 km
B*
2.7633e-4
RAAN
301.4105°
Arg perigee
186.5114°
Mean anomaly
173.5767°
Rev number
1,578

§ Raw data

KUIPER-005601 69623U 26140AH  26262.76891726  .00009820  00000+0  27633-3 0  99952 69623  51.8793 301.4105 0008174 186.5114 173.5767 15.37097804 15782

JSON: /api/v1/satellites/69623 · /tle

For live sub-satellite position, see the globe view (requires WebGL).

§ Visibility from observer

Set your observer location to see the next 7 days of passes ≥ 10°. The values pass through the URL so the page stays shareable.

No JS? Fill the form by hand. The geolocation button needs JavaScript.